Weather Roundup
Issued by NWS Springfield, MO

Home | Current Version | Previous Version | Text Only | Print | Product List | Glossary On
Versions: 1 2 3 4 5 6 7 8 9 10 11 12 13 14 15 16 17 18 19 20 21 22 23 24 25 26 27 28 29 30 31 32 33 34 35 36 37 38 39 40 41 42 43 44 45 46 47 48 49 50
000
NZUS99 KSGF 220259
HRRSGF

HOURLY WEATHER
NATIONAL WEATHER SERVICE SPRINGFIELD MO
1000 PM CDT THU AUG 21 2014

......SGF CWA......

CITY           SKY/WX    TMP DP  RH WIND       PRES   REMARKS
SPRINGFIELD    CLEAR     83  67  58 SW13      30.00R
JOPLIN         CLEAR     83  70  64 S15       29.98R
WEST PLAINS    CLEAR     81  65  58 SW5       30.05R
ROLLA          CLEAR     84  67  56 S12       29.97R
OSAGE BEACH    CLEAR     84  66  54 S3        29.96R
BRANSON        CLEAR     79  68  69 S5        30.05R

......SURROUNDING SGF CWA......

CITY           SKY/WX    TMP DP  RH WIND       PRES   REMARKS
CHANUTE        CLEAR     84  71  65 S15       29.95R
PARSONS        CLEAR     84  70  62 S10       29.97R
COFFEYVILLE    CLEAR     84  71  65 S12       29.95R
EMPORIA        CLEAR     86  72  62 S15       29.91R HX  92
SILOAM SPRINGS CLEAR     81  66  61 S8        30.04R
HARRISON AR    CLEAR     78  71  79 S8        30.05R
NEAR YELLVILLE PTCLDY    82  66  57 SW6       30.03R

......KANSAS AND MISSOURI......

CITY           SKY/WX    TMP DP  RH WIND       PRES   REMARKS
KANSAS CTY INT CLEAR     85  72  65 S13       29.90R HX  91
DOWNTOWN KC    CLEAR     89  71  55 S16       29.88R HX  95
COLUMBIA         N/A     81  73  76 S6        29.94R
SEDALIA        CLEAR     82  71  69 SW6       29.94R
ST JOSEPH      CLEAR     83  74  74 S7        29.86R
ST LOUIS       MOCLDY    88  76  67 S10       29.95R HX  99
SPIRIT OF STL  PTCLDY    79  76  90 CALM      29.93R
KIRKSVILLE     PTCLDY    78  75  90 S6        29.92R
WICHITA        PTCLDY    86  69  56 S16       29.90R HX  90
TOPEKA         CLEAR     90  73  57 S13       29.88R HX  98
OLATHE         CLEAR     83  72  69 S9        29.91R

......TENNESSEE......

CITY           SKY/WX    TMP DP  RH WIND       PRES   REMARKS
MEMPHIS        CLEAR     84  73  69 S8        30.05F HX  90
NASHVILLE      CLEAR     80  73  79 S3        30.07R

......ARKANSAS.......

CITY           SKY/WX    TMP DP  RH WIND       PRES   REMARKS
FAYETTEVILLE   CLEAR     79  71  76 S8        30.04R
FT SMITH       CLEAR     84  73  69 SE3       30.00R HX  90
LITTLE ROCK    PTCLDY    80  73  79 SE3       30.04R

......OKLAHOMA.......

CITY           SKY/WX    TMP DP  RH WIND       PRES   REMARKS
TULSA          CLEAR     87  72  60 S12       29.94R HX  93
PONCA CITY     CLEAR     88  71  57 S12G29    29.92R HX  94
MCALESTER      CLEAR     85  70  60 SE7       29.99R
OKLAHOMA CITY  CLEAR     86  70  58 SE14      29.95R HX  90

......IOWA............

CITY           SKY/WX    TMP DP  RH WIND       PRES   REMARKS
DES MOINES     PTCLDY    83  76  79 SE5       29.87R HX  91
QUAD CITIES    PTCLDY    76  73  91 SE3       29.89R

......ILLINOIS........

CITY           SKY/WX    TMP DP  RH WIND       PRES   REMARKS
QUINCY         CLEAR     81  76  84 S6        29.91R
CHICAGO        CLOUDY    75  70  84 CALM      29.93R



USA.gov is the U.S. government's official web portal to all federal, state and local government web resources and services.